Location: Veytaux
(46.4185°N, 6.9320°E)
Time: 08:48:10
(UTC+00:00)

ADEOS II - Pass Details

Date: 27 May 2022
Orbit: 799 x 800 km, 98.6° (Epoch: 01 July)

Event Time Altitude Azimuth Distance (km) Brightness Sun altitude
Rises 02:50:46 0° 5° (N) 3,319 6.1 -8.5°
Reaches altitude 10° 02:53:22 10° 354° (N) 2,384 5.1 -8.1°
Maximum altitude 02:57:47 28° 297° (WNW) 1,452 3.3 -7.6°
Drops below altitude 10° 03:02:13 10° 239° (WSW) 2,370 3.9 -7.0°
Enters shadow 03:02:40 - 237° (WSW) 2,526 4.0 -6.9°
